TimeEST,TemperatureF,Dew PointF,Humidity,Sea Level PressureIn,VisibilityMPH,Wind Direction,Wind SpeedMPH,Gust SpeedMPH,PrecipitationIn,Events,Conditions,WindDirDegrees,DateUTC
12:54 AM,41.0,33.8,76,30.18,10.0,WSW,4.6,-,N/A,,Partly Cloudy,240,2011-11-26 05:54:00
1:54 AM,41.0,35.1,79,30.19,10.0,Calm,Calm,-,N/A,,Scattered Clouds,0,2011-11-26 06:54:00
2:54 AM,39.0,34.0,82,30.19,10.0,Calm,Calm,-,N/A,,Scattered Clouds,0,2011-11-26 07:54:00
3:54 AM,37.9,34.0,86,30.19,10.0,Calm,Calm,-,N/A,,Mostly Cloudy,0,2011-11-26 08:54:00
4:54 AM,37.9,34.0,86,30.20,10.0,Calm,Calm,-,N/A,,Scattered Clouds,0,2011-11-26 09:54:00
5:54 AM,37.0,33.1,86,30.21,10.0,Calm,Calm,-,N/A,,Mostly Cloudy,0,2011-11-26 10:54:00
6:54 AM,36.0,33.1,89,30.23,10.0,Calm,Calm,-,N/A,,Mostly Cloudy,0,2011-11-26 11:54:00
7:54 AM,37.0,34.0,89,30.25,10.0,West,3.5,-,N/A,,Mostly Cloudy,260,2011-11-26 12:54:00
8:54 AM,44.1,37.0,76,30.25,9.0,Calm,Calm,-,N/A,,Mostly Cloudy,0,2011-11-26 13:54:00
9:54 AM,48.2,39.2,71,30.26,9.0,Calm,Calm,-,N/A,,Mostly Cloudy,0,2011-11-26 14:54:00
10:54 AM,57.0,37.9,49,30.25,10.0,Calm,Calm,-,N/A,,Mostly Cloudy,0,2011-11-26 15:54:00
11:54 AM,62.1,36.0,38,30.23,10.0,Calm,Calm,-,N/A,,Mostly Cloudy,0,2011-11-26 16:54:00
12:54 PM,68.0,28.9,23,30.21,10.0,NNW,5.8,-,N/A,,Mostly Cloudy,330,2011-11-26 17:54:00
1:54 PM,66.0,30.9,27,30.21,10.0,North,9.2,-,N/A,,Mostly Cloudy,350,2011-11-26 18:54:00
2:54 PM,64.9,30.9,28,30.21,10.0,Calm,Calm,-,N/A,,Mostly Cloudy,0,2011-11-26 19:54:00
3:54 PM,60.1,37.0,42,30.20,10.0,Calm,Calm,-,N/A,,Mostly Cloudy,0,2011-11-26 20:54:00
4:54 PM,57.0,37.0,47,30.21,10.0,Calm,Calm,-,N/A,,Overcast,0,2011-11-26 21:54:00
5:54 PM,53.1,39.0,59,30.22,10.0,Calm,Calm,-,N/A,,Overcast,0,2011-11-26 22:54:00
6:54 PM,55.0,37.0,51,30.22,10.0,SSW,3.5,-,N/A,,Overcast,200,2011-11-26 23:54:00
7:54 PM,51.1,39.0,63,30.22,10.0,Calm,Calm,-,N/A,,Overcast,0,2011-11-27 00:54:00
8:54 PM,48.2,39.2,71,30.21,10.0,Calm,Calm,-,N/A,,Overcast,0,2011-11-27 01:54:00
9:54 PM,46.9,37.0,68,30.19,10.0,Calm,Calm,-,N/A,,Scattered Clouds,0,2011-11-27 02:54:00
10:54 PM,44.6,35.6,71,30.18,10.0,Calm,Calm,-,N/A,,Scattered Clouds,0,2011-11-27 03:54:00
11:54 PM,44.1,37.9,79,30.17,10.0,Calm,Calm,-,N/A,,Scattered Clouds,0,2011-11-27 04:54:00